Home > Weather > Oklahoma City > Past weeks

Flag for USA Past Weather in Oklahoma City, Oklahoma, USA — Yesterday and Last 2 Weeks

Now
91 °F

Passing clouds.


Feels Like: 96 °F
Forecast: 79 / 101 °F
Wind: 15 mph from Southwest

Location: Will Rogers World Airport

Current Time: Jul 24, 2016 at 11:46:48 AM

Latest Report: Jul 24, 2016 at 10:52 AM


Visibility: 10 mi

Pressure: 29.93 "Hg

Humidity: 49%

Dew Point: 69 °F

Location of Oklahoma CityLocation

Past Weather in Oklahoma City — Graph

°F

Oklahoma City Temperature Yesterday

Maximum temperature yesterday: 100 °F (at 2:52 PM)
Minimum temperature yesterday: 72 °F (at 4:52 AM)
Average temperature yesterday: 86 °F

High & Low Weather Summary for the Past Weeks

 TemperatureHumidityPressure
High100 °F (Jul 23, 2:52 PM)96% (Jul 10, 4:52 AM)30.17 "Hg (Jul 10, 4:52 AM)
Low68 °F (Jul 10, 3:52 AM)30% (Jul 22, 3:52 PM)29.70 "Hg (Jul 11, 5:52 PM)
Average83 °F65%29.94 "Hg
* Reported Jul 9 9:52 AM — Jul 24 9:52 AM, Oklahoma City, Weather by CustomWeather, © 2016

Note: Actual official high and low records may vary slightly from our data, if they occured in-between our weather recording intervals... More about our weather records

Advertising

Oklahoma City Weather History for the Previous 24 Hours

Scroll right to see more
 ConditionsComfort  
Time TempWeatherWind HumidityBarometerVisibility
9:52 AM
Sun, Jul 24
89 °FPassing clouds.13 mph53%29.93 "Hg10 mi
8:52 AM83 °FPassing clouds.10 mph65%29.92 "Hg10 mi
7:52 AM78 °FScattered clouds.5 mph82%29.91 "Hg10 mi
6:52 AM73 °FPassing clouds.7 mph94%29.90 "Hg10 mi
5:52 AM73 °FPassing clouds.6 mph94%29.88 "Hg10 mi
4:52 AM74 °FPassing clouds.6 mph91%29.87 "Hg10 mi
3:52 AM76 °FPassing clouds.8 mph85%29.86 "Hg10 mi
2:52 AM75 °FPassing clouds.8 mph85%29.86 "Hg10 mi
1:52 AM77 °FPassing clouds.6 mph77%29.86 "Hg10 mi
12:52 AM78 °FPassing clouds.7 mph71%29.86 "Hg10 mi
11:52 PM
Sat, Jul 23
81 °FPassing clouds.8 mph65%29.86 "Hg10 mi
10:52 PM83 °FClear.7 mph59%29.87 "Hg10 mi
9:52 PM85 °FClear.7 mph55%29.85 "Hg10 mi
8:52 PM88 °FSunny.8 mph52%29.82 "Hg10 mi
7:52 PM93 °FSunny.8 mph41%29.81 "Hg10 mi
6:52 PM97 °FSunny.15 mph33%29.81 "Hg10 mi
5:52 PM98 °FPassing clouds.9 mph33%29.82 "Hg10 mi
4:52 PM98 °FPassing clouds.14 mph33%29.83 "Hg10 mi
3:52 PM99 °FPassing clouds.15 mph32%29.85 "Hg10 mi
2:52 PM100 °FPassing clouds.12 mph33%29.86 "Hg10 mi
1:52 PM99 °FPassing clouds.13 mph31%29.89 "Hg10 mi
12:52 PM97 °FPassing clouds.16 mph37%29.90 "Hg10 mi
11:52 AM95 °FPassing clouds.15 mph41%29.92 "Hg10 mi
Weather by CustomWeather, © 2016

See weather overviewHow to use our weather pages